Miscellaneous Local Product
Issued by NWS North Platte, NE

Home | Current Version | Previous Version | Text Only | Print | Product List | Glossary On
Versions: 1 2 3 4 5 6 7 8 9 10 11 12 13 14 15 16 17 18 19 20 21 22 23 24 25 26 27 28 29 30 31 32 33 34 35 36 37 38 39 40 41 42 43 44 45 46 47 48 49 50
000
AXUS43 KLBF 281910
MISLBF


WESTERN AND NORTH CENTRAL NEBRASKA HOURLY WEATHER ROUNDUP
NATIONAL WEATHER SERVICE NORTH PLATTE NE
200 PM CDT TUE APR 28 2015

***STATIONS NOT REPORTING VARIABLES SUCH AS SKY/WEATHER OR
PRESSURE ARE PROVIDED BY THE NEBRASKA DEPARTMENT OF
ROADS...RAWS...AND APRS NETWORKS...AND ARE NOT UNDER
NATIONAL WEATHER SERVICE QUALITY CONTROL***

...OBSERVATIONS IN AND NEAR THE EASTERN PANHANDLE OF NEBRASKA...

CITY           SKY/WX    TMP DP  RH WIND       PRES   REMARKS
PINE RIDGE     CLOUDY    57  37  47 VRB3      30.27F
CHADRON        CLOUDY    59  41  51 S5        30.26F
ALLIANCE       CLOUDY    55  39  54 CALM      30.27F
SIDNEY         CLOUDY    54  42  64 SW9       30.30F
WHITECLAY        N/A     58  38  47 CALM        N/A
CRESCENT LAKE    N/A     58  40  52 NW3         N/A
BIG SPRINGS      N/A     59  45  58 W3          N/A
$$

...OBSERVATIONS IN NORTH CENTRAL NEBRASKA...

CITY           SKY/WX    TMP DP  RH WIND       PRES   REMARKS
VALENTINE      PTSUNNY   59  37  44 NW9       30.27F
THEDFORD       PTSUNNY   60  41  50 N12       30.27F
AINSWORTH      MOSUNNY   58  38  47 NW13G18   30.26F
O`NEILL        MOSUNNY   62  40  45 N16       30.24F
ORD            SUNNY     64  39  39 N13G22    30.21F
BROKEN BOW     SUNNY     65  39  38 NW13G23   30.23F
BROWNLEE         N/A     61  34  36 NW12        N/A
SPRINGVIEW       N/A     58  39  49 N7G20       N/A
HALSEY           N/A     60  40  47 NW6G13      N/A
BREWSTER         N/A     63  41  44 SW9         N/A
ROSE             N/A     63  43  48 SW8         N/A
NEWPORT          N/A     60  39  46 W12         N/A
SARGENT          N/A     64  42  44 N5          N/A
COMSTOCK         N/A     69  43  38 S10         N/A
EWING            N/A     63  44  50 N9G18       N/A
$$

...OBSERVATIONS IN SOUTHWEST NEBRASKA AND FAR NORTHEAST COLORADO...

CITY           SKY/WX    TMP DP  RH WIND       PRES   REMARKS
WRAY           FAIR      60  40  47 SW5       30.29F
HOLYOKE        MOCLDY    59  41  51 NW7       30.29F
IMPERIAL       CLOUDY    61  39  44 VRB5      30.27F
OGALLALA       CLOUDY    60  41  50 N3        30.27F
NORTH PLATTE   MOSUNNY   63  42  46 VRB6      30.25F
MCCOOK         PTSUNNY   66  39  37 VRB5      30.24F
LEXINGTON      MOSUNNY   65  44  47 N7        30.22F
PAXTON           N/A     62  44  51 NW5         N/A
SUTHERLAND       N/A     59  34  39 W3          N/A
BRADY            N/A     63  43  48 CALM        N/A
GOTHENBURG       N/A     63  36  36 NW6         N/A
CALLAWAY         N/A     63  45  51 W8          N/A
$$

...NORTH PLATTE AREA...

CITY           SKY/WX    TMP DP  RH WIND       PRES   REMARKS
AIRPORT        MOSUNNY   63  42  46 VRB6      30.25F
DOWNTOWN         N/A     64  42  44 NW3         N/A
$$

...SOME WEATHER OBSERVATIONS FROM AROUND THE REGION...

CITY           SKY/WX    TMP DP  RH WIND       PRES   REMARKS
DENVER         PTSUNNY   54  37  52 E6        30.29F
LARAMIE        SUNNY     51  33  50 VRB5      30.27F
CHEYENNE       CLOUDY    49  35  58 SW13      30.29F
SCOTTSBLUFF    CLOUDY    58  42  55 CALM      30.27F
RAPID CITY     MOSUNNY   59  38  45 SE7       30.26F
PIERRE         MOSUNNY   59  37  44 VRB5      30.25F
WINNER         PTSUNNY   58  37  45 NW9       30.27F
SIOUX FALLS    PTSUNNY   62  45  53 NW17      30.18F
OMAHA          MOSUNNY   72  38  29 NW9       30.13F
GRAND ISLAND   SUNNY     66  43  43 NW10      30.20F
KANSAS CITY    MOSUNNY   69  40  34 NE8       30.10F
WICHITA        PTSUNNY   67  38  34 N13       30.14F
HAYS           SUNNY     68  34  28 NE14G22   30.20F
LIBERAL        MOSUNNY   63  37  39 N12G26    30.24F
GOODLAND       MOSUNNY   64  37  36 MISG      30.27F
$$



USA.gov is the U.S. government's official web portal to all federal, state and local government web resources and services.